DW7205 Weather Reports


time (UTC)temp
C
wind
direction
speed
KPH
gust
KPH
rain 1hr
cm
rain 24hr
cm
rain mn
cm
humidity
%
barometer
mb
20260507201515 13 298 8.0 20.9 0.00 0.91 0.00 37 1004.0
20260507200031 13 254 14.5 25.7 0.00 0.91 0.00 38 1004.1
20260507194516 12 284 6.4 27.4 0.00 1.14 0.00 37 1004.0
20260507193035 12 232 9.7 20.9 0.00 1.14 0.00 39 1004.2
20260507191515 12 294 11.3 25.7 0.00 1.14 0.00 38 1004.2
20260507190015 12 288 8.0 27.4 0.00 1.14 0.00 38 1004.5
20260507184513 13 265 12.9 32.2 0.00 1.37 0.00 36 1004.4
20260507183019 13 278 14.5 33.8 0.00 1.37 0.00 35 1004.3
20260507181511 13 277 11.3 25.7 0.00 1.37 0.00 36 1004.3
20260507180009 12 306 6.4 25.7 0.00 1.37 0.00 40 1004.4
20260507174508 12 284 4.8 27.4 0.00 1.57 0.00 40 1004.4
20260507173014 12 321 11.3 25.7 0.00 1.57 0.00 39 1004.9
20260507171505 12 304 9.7 33.8 0.00 1.57 0.00 41 1004.9
20260507170004 12 279 9.7 29.0 0.00 1.57 0.00 45 1005.0
20260507164502 11 11 3.2 22.5 0.00 1.60 0.00 50 1005.0
20260507163002 12 277 8.0 17.7 0.00 1.60 0.00 49 1005.3
20260507161610 12 355 3.2 27.4 0.00 1.60 0.00 52 1005.6
20260507160107 11 306 1.6 24.1 0.00 1.60 0.00 59 1005.7
20260507154556 10 311 6.4 32.2 0.00 1.60 0.00 63 1006.1
20260507153111 11 285 6.4 27.4 0.00 1.60 0.00 65 1005.8
20260507151559 10 285 3.2 22.5 0.00 1.60 0.00 65 1006.0
20260507150055 10 244 12.9 20.9 0.00 1.60 0.00 67 1006.2
20260507144553 9 281 9.7 16.1 0.00 1.60 0.00 71 1006.2
20260507143055 9 281 4.8 14.5 0.00 1.60 0.00 74 1006.1
20260507141553 9 272 11.3 24.1 0.00 1.60 0.00 72 1006.1
20260507140053 10 198 8.0 22.5 0.00 1.60 0.00 69 1006.0
20260507134553 10 308 6.4 16.1 0.00 1.60 0.00 72 1006.0
20260507133052 10 224 4.8 19.3 0.00 1.60 0.00 70 1006.0
20260507131551 11 294 1.6 24.1 0.00 1.60 0.00 68 1005.9
20260507130059 11 13 1.6 11.3 0.00 1.60 0.00 68 1006.1
20260507124607 10 259 1.6 6.4 0.00 1.60 0.00 70 1006.0
20260507123102 10 286 6.4 19.3 0.00 1.60 0.00 70 1005.9
20260507121555 10 252 3.2 17.7 0.00 1.60 0.00 72 1006.1
20260507120041 9 296 0.0 8.0 0.00 1.60 0.00 75 1006.3
20260507114538 8 287 1.6 12.9 0.00 1.60 0.00 81 1006.2
20260507113037 8 293 1.6 9.7 0.00 1.60 0.00 80 1006.1
20260507111536 7 270 1.6 9.7 0.00 1.60 0.00 90 1006.1
20260507110035 6 154 0.0 0.0 0.00 1.60 0.00 95 1006.3
20260507104535 5 154 0.0 3.2 0.00 1.60 0.00 96 1006.1
20260507103033 5 160 3.2 6.4 0.00 1.60 0.00 95 1005.8
20260507101539 4 288 0.0 6.4 0.00 1.60 0.00 95 1006.1
20260507100044 4 288 0.0 3.2 0.00 1.60 0.00 95 1006.0
20260507094527 5 288 0.0 3.2 0.00 1.60 0.00 95 1006.1
20260507093025 5 288 0.0 0.0 0.00 1.60 0.00 94 1006.0
20260507091522 5 288 0.0 6.4 0.00 1.60 0.00 94 1005.8
20260507090020 5 290 4.8 9.7 0.00 1.60 0.00 94 1005.9
20260507084518 6 292 0.0 1.6 0.00 1.60 0.00 94 1005.7
20260507083017 6 283 1.6 6.4 0.00 1.60 0.00 95 1005.7
20260507081517 6 309 0.0 4.8 0.00 1.60 0.00 95 1005.8
20260507080013 6 309 0.0 6.4 0.00 1.60 0.00 94 1005.7
20260507074509 6 311 0.0 3.2 0.00 1.60 0.00 93 1005.2
20260507073008 7 311 0.0 4.8 0.00 1.60 0.00 91 1004.7
20260507071509 7 319 0.0 12.9 0.00 1.60 0.00 88 1004.6
20260507070010 7 236 8.0 16.1 0.00 1.60 0.00 90 1005.0
20260507064505 7 294 6.4 20.9 0.00 1.60 0.00 90 1004.8
20260507063001 7 298 6.4 12.9 0.00 1.60 0.00 93 1004.6
20260507061600 7 294 3.2 12.9 0.00 1.60 0.00 93 1004.7
20260507060058 6 275 4.8 11.3 0.00 1.60 0.00 94 1004.2
20260507054554 7 310 3.2 14.5 0.00 1.60 0.00 94 1004.2
20260507053052 7 298 3.2 11.3 0.00 1.60 0.00 95 1004.2
20260507051548 7 276 1.6 11.3 0.00 1.60 0.00 96 1004.3
20260507050046 7 105 0.0 1.6 0.00 1.60 0.00 95 1004.1
20260507044546 8 151 1.6 6.4 0.00 1.60 0.00 95 1004.0
20260507043043 8 246 0.0 6.4 0.00 1.60 0.00 95 1003.9
20260507041545 8 260 0.0 8.0 0.03 1.60 0.00 94 1003.7
20260507040035 9 248 3.2 11.3 0.03 1.60 0.00 95 1004.0
20260507034533 10 301 0.0 4.8 0.03 1.60 1.60 94 1003.7
20260507033131 10 302 0.0 4.8 0.03 1.60 1.60 93 1003.5
20260507031530 10 290 1.6 11.3 0.00 1.57 1.57 93 1003.7
20260507030029 10 281 1.6 14.5 0.00 1.57 1.57 94 1003.5
20260507024527 10 289 3.2 9.7 0.03 1.57 1.57 94 1003.3
20260507023025 10 252 3.2 11.3 0.03 1.57 1.57 94 1003.3
20260507021522 10 205 4.8 14.5 0.05 1.57 1.57 93 1003.3
20260507020023 11 173 6.4 9.7 0.05 1.57 1.57 94 1003.2
20260507014526 11 217 3.2 12.9 0.03 1.55 1.55 95 1003.2
20260507013023 12 94 3.2 8.0 0.03 1.55 1.55 94 1002.9
20260507011520 12 315 1.6 6.4 0.00 1.52 1.52 93 1002.9
20260507010018 12 300 4.8 11.3 0.00 1.52 1.52 94 1003.2
20260507004531 12 242 0.0 4.8 0.00 1.52 1.52 95 1002.8
20260507003016 13 248 3.2 11.3 0.03 1.52 1.52 94 1002.7
20260507001520 13 197 6.4 12.9 0.03 1.52 1.52 95 1002.6
20260507000019 13 257 3.2 12.9 0.03 1.52 1.52 95 1002.3
20260506234516 14 239 3.2 11.3 0.05 1.52 1.52 96 1002.3
20260506233013 14 259 1.6 14.5 0.05 1.50 1.50 96 1002.2
20260506231528 14 219 6.4 16.1 0.08 1.50 1.50 96 1002.3
20260506230011 14 269 6.4 14.5 0.10 1.50 1.50 96 1002.3
20260506224509 14 257 1.6 6.4 0.15 1.57 1.45 96 1002.0
20260506223007 14 232 0.0 8.0 0.18 1.55 1.42 96 1002.2
20260506221506 14 249 1.6 6.4 0.25 1.52 1.42 96 1002.4
20260506220004 14 146 0.0 6.4 0.36 1.50 1.40 96 1002.5
20260506214503 14 242 0.0 3.2 0.48 1.50 1.32 95 1002.6
20260506213140 14 242 0.0 3.2 0.53 1.42 1.27 95 1002.8
20260506211623 14 242 1.6 4.8 0.43 1.35 1.17 95 1003.0
20260506204559 15 250 3.2 12.9 0.23 1.04 0.86 95 1003.3
20260506203054 15 147 0.0 4.8 0.18 0.91 0.71 95 1003.4